Tracking 30009 objects as of 8-Dec-2024
HD Live streaming from Space Station
objects crossing your sky now

STARLINK-31811

Track STARLINK-31811 now!
10-day predictions
STARLINK-31811 is classified as:


NORAD ID: 60051
Int'l Code: 2024-112P
Perigee: 481.7 km
Apogee: 483.2 km
Inclination: 53.2 °
Period: 94.1 minutes
Semi major axis: 6853 km
RCS: Unknown
Launch date: June 8, 2024
Source: United States (US)
Launch site: AIR FORCE WESTERN TEST RANGE (AFWTR)
Your satellite tracking list
Your tracking list is empty




NASA's NSSDC Master Catalog

Two Line Element Set (TLE):
1 60051U 24112P   24342.82502550  .00004602  00000-0  16754-3 0  9992
2 60051  53.1602  40.4348 0001123 103.6740 256.4385 15.30169613 29078
Source of the keplerian elements: AFSPC